Retour au catalogue

STARLINK-5842

ActifCommunicationsVLEO
NORAD 56491·PAYLOAD·🇺🇸 United States

Lancé May 10, 2023 depuis Vandenberg Space Force Base

Loading…

Prochains Passages (prochaines 24 heures)

TLE

FraisSource: CelesTrak SupGP

Époque: Sep 14, 2026, 21:00 UTC

1 56491C 23064AV  26257.87548611 -.00051752  00000+0 -43379-2 0  2578
2 56491  70.0018 347.4517 0003393 270.7046 344.6510 14.98348770    13

Suivez STARLINK-5842 en temps réel avec AllMySat

Download on the App Store